Showing default

OPS 9313 (IDSCS 3), 2217

Orbit data source: Space-Track

OPS 9313 (IDSCS 3), 2217 is a payload satellite owned by USAF SSD (US) in GEO that was launched on Thu, 16 Jun 1966 UTC via a TITAN IIIC launch vehicle from the Air Force Eastern Test Range (AFETR). Payloads include a variety of satellites, spacecraft, and rockets equipped with specific instruments for various scientific and technological missions. These include communications satellites like Starlink; space stations such as the ISS; scientific satellites like the Hubble; Earth observation satellites from companies like Planet Labs, Umbra, and HawkEye 360; GPS; miniature CubeSats for education and research; and military/defense satellites.

Not visible in the next 10 days
OPS 9313 (IDSCS 3) details
Identifier
2217, 1966-053D
Orbit
GEO
Last TLE update16 hours ago
Origin
Flag of USUSAF SSD (US)
ManufacturerPhilco-Ford WDL
MissionNon-operational Defense Communications
Bus & MotorIDCSP, Unknown motor
Mass45 kg wet, 45 kg dry
Launch date (UTC)
1966-06-16 (59 years ago)
Launch vehicle
TITAN IIIC
Launch site
Air Force Eastern Test Range (AFETR)
Object type
Payload
Rocket body
Debris
Shape & HBRIco Poly, 0.9 m
Radar Cross Section0.926 m², Medium (>0.1 m² and < 1m²)

Expand to show TLE details & history

TLE from 16 hours ago
0 OPS 9313 (IDSCS 3)
1 02217U 66053D   24355.86679320 -.00000061  00000-0  00000-0 0  9990
2 02217   7.6212  49.0399 0037218 196.3102 163.5100  1.07754335133669
Epoch: 2024-12-20T20:48Z
Definitive object data (Epoch: 2024-12-20T20:48:10.932Z)
Latitude-0.00001°
Longitude7.01422°
Altitude33,954.48 km
Speed3.138 km/s
True Right ascension03h 15m 56s
True Declination0° 00' 00"
Sunlit
Object was in daylight at TLE epoch
Visualization TLE readout
Latitude-7.58947°
Longitude-89.82962°
Altitude33,752.212 km
Speed3.154 km/s
Apparent Right ascension21h 08m 21s
Apparent Declination-12° 15' 06"
Sunlit
Object is in daylight
Visualization observer readout
Local Sidereal Time12:06:08
Azimuth67.398° ENE
Elevation-42.162°
Doppler factor1
Orbital elements
Apogee altitude33,961.981 km
Perigee altitude33,662.818 km
Semi-major axis40,190.536 km
Eccentricity0.0037218
Inclination7.6212°
RAAN49.0399°
Arg. of periapsis196.3102°
True anomaly163.63052°
Mean anomaly163.51°
Eccentric anomaly163.57031°
Mean motion0.26938 °/min
BSTARUnknown
Orbital period1336.43 mins
Loading historical data...
2217 neighbors
Authenticating...
Loading maneuver chart data...
Loading historical data...
Loading historical data...
Loading historical data...
Loading historical data...
Loading historical data...
Loading historical data...
Loading historical data...

OPS 9313 (IDSCS 3) Visibility forecast

Observer location: undefined°, undefined

OPS 9313 (IDSCS 3) is not visible in the next 10 days
Span
Click to sort rows by Start time (UTC) header in descending order
Start Az.
Max El. time (UTC)
Max El. Az.
Max El.
End time (UTC)
End Az.
|